Weather History for Osceola Municipal, IA

Change the Weather History Date:

Saturday, June 29, 2013

  Actual Average (KLWD) Record (KLWD)
Temperature  
Mean Temperature 68 °F 74 °F  
Max Temperature 75 °F 84 °F 97 °F (1991)
Min Temperature 62 °F 64 °F 53 °F (1999)
Degree Days  
Heating Degree Days 0 0  
Month to date heating degree days 16  
Since 1 June heating degree days 16  
Since 1 July heating degree days 6076  
Cooling Degree Days 3 9  
Month to date cooling degree days 184  
Year to date cooling degree days 238  
Since 1 June cooling degree days 184  
Growing Degree Days 18 (Base 50)    
Moisture  
Dew Point 57 °F    
Average Humidity 67    
Maximum Humidity 82    
Minimum Humidity 53    
Precipitation  
Precipitation 0.18 in 0.12 in 1.52 in (1981)
Month to date precipitation 4.84  
Sea Level Pressure  
Sea Level Pressure 29.83 in    
Wind  
Wind Speed 11 mph (NW)    
Max Wind Speed 26 mph    
Max Gust Speed 40 mph    
Visibility 10 miles    
Events Rain    
T = Trace of Precipitation, MM = Missing Value Source: NWS Daily Summary

Daily Weather History Graph

Daily Weather History Graph

Search for Another Location

Airport:

Trip Planner

Search our weather history database for the weather conditions in past years. The results will help you decide how hot, cold, wet, or windy it might be!

Date:

Astronomy

Jun. 29, 2013 Rise Set
Actual Time 5:45 AM CDT 8:51 PM CDT
Civil Twilight 5:11 AM CDT 9:24 PM CDT
Nautical Twilight 4:28 AM CDT 10:07 PM CDT
Astronomical Twilight 3:38 AM CDT 10:58 PM CDT
Moon 12:16 AM CDT (6/29) 1:01 PM CDT (6/29)
Length of Visible Light 16h 12m
Length of Day
15h 05m
Waning Gibbous, 55% of the Moon is Illuminated
Jun 29
Waning Gibbous
Jun 29
Last Quarter
Jul 8
New
Jul 15
First Quarter
Jul 22
Full

Hourly Weather History & Observations

Time (CDT) Temp. Dew Point Humidity Pressure Visibility Wind Dir Wind Speed Gust Speed Precip Events Conditions
12:15 AM 66.2 °F 55.2 °F 68% 29.82 in 10.0 mi West 6.9 mph - N/A   Clear
12:35 AM 65.8 °F 55.0 °F 68% 29.82 in 10.0 mi West 6.9 mph - N/A   Clear
12:55 AM 66.0 °F 55.2 °F 68% 29.81 in 10.0 mi West 9.2 mph - N/A   Clear
1:15 AM 65.5 °F 55.4 °F 70% 29.81 in 10.0 mi WNW 8.1 mph - N/A   Clear
1:35 AM 65.8 °F 55.4 °F 69% 29.81 in 10.0 mi West 8.1 mph - N/A   Clear
1:55 AM 65.7 °F 55.4 °F 69% 29.81 in 10.0 mi WNW 8.1 mph - N/A   Clear
2:15 AM 65.3 °F 55.4 °F 70% 29.81 in 10.0 mi WNW 9.2 mph - N/A   Clear
2:35 AM 65.1 °F 55.4 °F 71% 29.80 in 10.0 mi WNW 8.1 mph - N/A   Clear
2:55 AM 64.6 °F 55.4 °F 72% 29.81 in 10.0 mi West 6.9 mph - N/A   Clear
3:15 AM 64.4 °F 55.2 °F 72% 29.80 in 10.0 mi West 8.1 mph - N/A   Clear
3:35 AM 64.4 °F 55.0 °F 72% 29.79 in 10.0 mi WNW 6.9 mph - N/A   Clear
3:55 AM 63.9 °F 54.9 °F 72% 29.79 in 10.0 mi WNW 8.1 mph - N/A   Clear
4:15 AM 63.5 °F 55.0 °F 74% 29.80 in 10.0 mi WNW 8.1 mph - N/A   Clear
4:35 AM 63.3 °F 55.0 °F 74% 29.80 in 10.0 mi WNW 8.1 mph - N/A   Clear
4:55 AM 62.8 °F 55.4 °F 77% 29.81 in 10.0 mi WNW 8.1 mph - N/A   Clear
5:15 AM 62.6 °F 55.4 °F 77% 29.81 in 10.0 mi WNW 8.1 mph - N/A   Clear
5:35 AM 62.6 °F 55.4 °F 77% 29.81 in 10.0 mi WNW 8.1 mph - N/A   Clear
5:55 AM 62.4 °F 55.4 °F 78% 29.81 in 10.0 mi WNW 8.1 mph - N/A   Clear
6:15 AM 62.6 °F 55.4 °F 77% 29.81 in 10.0 mi WNW 8.1 mph - N/A   Clear
6:35 AM 63.1 °F 55.4 °F 76% 29.82 in 10.0 mi WNW 6.9 mph - N/A   Clear
6:55 AM 64.4 °F 55.6 °F 73% 29.81 in 10.0 mi West 9.2 mph - N/A   Clear
7:15 AM 65.3 °F 56.1 °F 72% 29.81 in 10.0 mi WNW 10.4 mph - N/A   Clear
7:35 AM 66.4 °F 56.7 °F 71% 29.81 in 10.0 mi WNW 11.5 mph 16.1 mph N/A   Clear
7:55 AM 67.3 °F 57.2 °F 70% 29.81 in 10.0 mi NW 11.5 mph - N/A   Clear
8:15 AM 68.7 °F 57.6 °F 67% 29.82 in 10.0 mi NW 12.7 mph - N/A   Clear
8:35 AM 69.8 °F 57.7 °F 65% 29.82 in 10.0 mi NW 10.4 mph 17.3 mph N/A   Clear
8:55 AM 70.3 °F 57.9 °F 65% 29.81 in 10.0 mi WNW 16.1 mph - N/A   Clear
9:15 AM 71.6 °F 58.5 °F 63% 29.81 in 10.0 mi WNW 13.8 mph 18.4 mph N/A   Clear
9:35 AM 72.1 °F 58.8 °F 63% 29.81 in 10.0 mi WNW 15.0 mph 20.7 mph N/A   Scattered Clouds
9:55 AM 72.9 °F 58.6 °F 61% 29.80 in 10.0 mi WNW 12.7 mph 21.9 mph N/A   Scattered Clouds
10:15 AM 72.5 °F 58.8 °F 62% 29.81 in 10.0 mi NW 17.3 mph 29.9 mph N/A   Mostly Cloudy
10:35 AM 73.6 °F 57.6 °F 57% 29.80 in 10.0 mi NW 19.6 mph 27.6 mph N/A   Mostly Cloudy
10:55 AM 72.1 °F 57.0 °F 59% 29.81 in 10.0 mi NW 16.1 mph 26.5 mph N/A   Mostly Cloudy
11:15 AM 72.0 °F 57.2 °F 60% 29.80 in 10.0 mi NW 19.6 mph 27.6 mph N/A   Mostly Cloudy
11:35 AM 73.2 °F 57.2 °F 57% 29.80 in 10.0 mi WNW 16.1 mph 27.6 mph N/A   Mostly Cloudy
11:55 AM 73.2 °F 56.8 °F 56% 29.80 in 10.0 mi NW 23.0 mph 27.6 mph N/A   Overcast
12:15 PM 74.3 °F 57.2 °F 55% 29.79 in 10.0 mi NW 17.3 mph 29.9 mph N/A   Mostly Cloudy
12:35 PM 74.3 °F 56.3 °F 53% 29.79 in 10.0 mi NNW 18.4 mph 27.6 mph N/A   Scattered Clouds
12:55 PM 72.9 °F 56.3 °F 56% 29.80 in 10.0 mi NNW 26.5 mph 40.3 mph N/A   Mostly Cloudy
1:15 PM 67.6 °F 61.3 °F 80% 29.81 in 10.0 mi NNW 17.3 mph 27.6 mph N/A   Mostly Cloudy
1:35 PM 72.1 °F 61.0 °F 68% 29.81 in 10.0 mi NNW 16.1 mph 26.5 mph N/A   Scattered Clouds
1:55 PM 73.0 °F 59.9 °F 63% 29.80 in 10.0 mi NNW 17.3 mph 26.5 mph N/A   Mostly Cloudy
2:15 PM 66.6 °F 60.8 °F 82% 29.81 in 1.8 mi NNW 15.0 mph 23.0 mph 0.17 in Rain Heavy Rain
2:35 PM 71.2 °F 63.5 °F 76% 29.81 in 10.0 mi NNW 15.0 mph - 0.18 in   Mostly Cloudy
2:55 PM 70.9 °F 61.7 °F 73% 29.81 in 10.0 mi North 18.4 mph 24.2 mph 0.18 in   Mostly Cloudy
3:15 PM 72.3 °F 59.5 °F 64% 29.81 in 10.0 mi North 20.7 mph 29.9 mph N/A   Scattered Clouds
3:35 PM 73.4 °F 59.5 °F 62% 29.81 in 10.0 mi North 19.6 mph 25.3 mph N/A   Scattered Clouds
3:55 PM 72.7 °F 58.6 °F 61% 29.81 in 10.0 mi North 17.3 mph 24.2 mph N/A   Mostly Cloudy
4:15 PM 73.2 °F 57.6 °F 58% 29.81 in 10.0 mi NNW 23.0 mph 27.6 mph N/A   Mostly Cloudy
4:35 PM 72.9 °F 58.5 °F 60% 29.82 in 10.0 mi North 18.4 mph 25.3 mph N/A   Overcast
4:55 PM 73.2 °F 58.5 °F 60% 29.82 in 10.0 mi North 17.3 mph 28.8 mph N/A   Mostly Cloudy
5:15 PM 72.7 °F 57.7 °F 59% 29.83 in 10.0 mi North 16.1 mph 25.3 mph N/A   Mostly Cloudy
5:35 PM 71.6 °F 58.3 °F 63% 29.83 in 10.0 mi North 12.7 mph 20.7 mph N/A   Overcast
5:55 PM 73.0 °F 59.2 °F 62% 29.83 in 10.0 mi North 13.8 mph 18.4 mph N/A   Scattered Clouds
6:15 PM 71.6 °F 57.4 °F 61% 29.83 in 10.0 mi North 12.7 mph 20.7 mph N/A   Mostly Cloudy
6:35 PM 72.1 °F 55.8 °F 56% 29.83 in 10.0 mi North 11.5 mph - N/A   Scattered Clouds
6:55 PM 72.1 °F 55.8 °F 56% 29.83 in 10.0 mi North 10.4 mph 21.9 mph N/A   Clear
7:15 PM 71.4 °F 54.0 °F 54% 29.84 in 10.0 mi North 17.3 mph 24.2 mph N/A   Scattered Clouds
7:35 PM 70.5 °F 53.6 °F 55% 29.85 in 10.0 mi North 13.8 mph 18.4 mph N/A   Mostly Cloudy
7:55 PM 70.2 °F 54.1 °F 57% 29.86 in 10.0 mi North 13.8 mph 20.7 mph N/A   Scattered Clouds
8:15 PM 69.8 °F 54.3 °F 58% 29.86 in 10.0 mi North 18.4 mph 24.2 mph N/A   Scattered Clouds
8:35 PM 67.8 °F 54.5 °F 62% 29.87 in 10.0 mi North 16.1 mph 21.9 mph N/A   Scattered Clouds
8:55 PM 66.4 °F 54.0 °F 64% 29.87 in 10.0 mi North 16.1 mph 21.9 mph N/A   Clear
9:15 PM 65.8 °F 53.6 °F 65% 29.88 in 10.0 mi North 10.4 mph 19.6 mph N/A   Clear
9:35 PM 64.8 °F 53.6 °F 67% 29.89 in 10.0 mi North 9.2 mph - N/A   Clear
9:55 PM 64.2 °F 53.8 °F 69% 29.90 in 10.0 mi North 8.1 mph - N/A   Clear
10:15 PM 63.7 °F 54.0 °F 71% 29.90 in 10.0 mi North 8.1 mph - N/A   Scattered Clouds
10:35 PM 64.0 °F 54.3 °F 71% 29.91 in 10.0 mi North 8.1 mph - N/A   Overcast
10:55 PM 63.7 °F 54.9 °F 73% 29.91 in 10.0 mi North 5.8 mph - N/A   Overcast
11:15 PM 63.3 °F 55.4 °F 75% 29.91 in 10.0 mi North 5.8 mph - N/A   Overcast
11:35 PM 62.8 °F 55.4 °F 77% 29.91 in 10.0 mi NNW 4.6 mph - N/A   Overcast
11:55 PM 62.2 °F 55.6 °F 79% 29.91 in 10.0 mi NNW 4.6 mph - N/A   Overcast